Location: Hochstatterhof
(48.7256°N, 10.3487°E)
Time: 04:37:25
(UTC+00:00)

Daily predictions for brighter satellites

Satellite Brightness Start Highest point End
(mag) Time Altitude Azimuth Time Altitude Azimuth Time Altitude Azimuth
ADEOS II 4.2 00:41:48 10° NE 00:44:20 22° ENE 00:44:20 22° ENE
Cosmos 2082 Rocket 3.7 01:02:42 32° ENE 01:02:42 32° ENE 01:06:08 10° NE
IDEFIX/ARIANE 42P 4.0 01:09:02 10° NNE 01:12:00 34° NNE 01:12:00 34° NNE
Cosmos 1833 Rocket 4.0 01:18:16 34° N 01:18:16 34° N 01:21:34 10° NNE
CZ-2C R/B 3.7 01:27:26 40° NE 01:27:26 40° NE 01:31:36 10° N
SL-16 R/B 3.1 01:28:59 52° N 01:28:59 52° N 01:33:32 10° NNW
ALOS 4.3 01:24:45 10° NE 01:27:51 23° E 01:27:51 23° E
BREEZE-M DEB (TANK) 4.2 01:33:25 76° SSW 01:34:01 80° SSE 01:57:48 10° ENE
SL-16 R/B 3.1 01:36:29 10° NNW 01:41:59 46° NE 01:47:26 10° SE
Resurs 1-4 Rocket 3.2 01:39:54 10° N 01:43:07 37° N 01:43:07 37° N
CZ-2D R/B 3.1 01:40:43 10° N 01:44:21 42° N 01:44:21 42° N
USA 281 3.1 01:39:38 10° NNE 01:46:05 84° ENE 01:46:05 84° ENE
ATLAS 2AS CENTAUR R/B 3.9 01:45:48 33° SE 01:47:37 37° ESE 01:54:11 10° NE
USA 215 3.2 01:42:37 10° SE 01:48:21 70° SE 01:48:21 70° SE
FENGYUN 3A 4.2 01:45:04 10° NNE 01:49:58 55° E 01:49:58 55° E
Cosmos 371 Rocket 4.3 01:54:59 44° NNE 01:54:59 44° NNE 01:58:20 10° NNE
Cosmos 1461 4.5 01:55:35 37° NE 01:55:35 37° NE 01:58:20 10° NE
MSX 4.2 01:52:15 10° N 01:56:52 55° NNW 01:56:52 55° NNW
ATLAS 3B R/B 3.8 01:57:38 10° NW 02:05:00 48° NE 02:12:30 10° ESE
Iridium 4 Rocket 3.8 01:59:44 10° N 02:04:49 66° ENE 02:04:49 66° ENE
Cosmos 2322 Rocket 3.1 02:00:42 10° NNW 02:06:10 47° NE 02:11:38 10° SE
NOSS 3-4 (A) 4.2 02:13:22 36° NW 02:13:48 37° NNW 02:19:37 10° NE
NOSS 3-4 (C) 4.2 02:13:29 36° NW 02:13:54 37° NNW 02:19:44 10° NE
SL-4 R/B 4.3 02:16:50 16° E 02:16:50 16° E 02:17:35 10° E
COSMOS 2406 3.5 02:14:46 58° NW 02:14:46 58° NW 02:20:04 10° NNE
ASTEX 1 4.1 02:12:41 10° N 02:16:10 44° NNW 02:16:10 44° NNW
NOSS 2-3 (C) 4.5 02:17:54 27° NW 02:21:25 86° SW 02:29:21 10° SE
Lacrosse 4 Rocket 2.4 02:23:45 43° NNE 02:23:45 43° NNE 02:26:47 10° NNE
ADEOS II 2.7 02:21:07 10° N 02:25:14 42° NW 02:25:14 42° NW
Cosmos 1680 Rocket 3.4 02:21:07 10° NNW 02:26:30 88° ENE 02:27:56 50° SSE
NOSS 2-3 (D) 4.5 02:22:41 24° NW 02:26:32 85° SW 02:34:26 10° SE
Cosmos 1782 3.6 02:28:44 48° ENE 02:28:44 48° ENE 02:31:56 10° NNE
Cosmos 2360 Rocket 2.8 02:29:52 10° NNW 02:35:29 57° ENE 02:41:04 10° SE
Cosmos 1553 Rocket 3.8 02:29:55 10° NNW 02:36:00 67° W 02:37:04 56° SW
ATLAS 5 CENTAUR R/B 3.0 02:36:43 24° NNW 02:36:43 24° NNW 02:39:40 10° NNE
Cosmos-2242 4.2 02:37:55 31° NNW 02:37:55 31° NNW 02:40:24 10° N
Meteor 2-2 Rocket 4.2 02:35:16 54° SSW 02:36:45 88° W 02:42:37 10° NNE
Cosmos 2221 3.4 02:36:30 35° SE 02:37:45 47° E 02:41:55 10° NNE
Thor Agena Rocket 3.4 02:32:52 10° NNE 02:38:08 76° WNW 02:38:37 70° WSW
Cosmos 2333 Rocket 3.1 02:33:12 10° NNW 02:38:45 49° NE 02:44:19 10° SE
Cosmos 2026 Rocket 4.4 02:42:02 41° WNW 02:42:02 41° WNW 02:47:43 10° N
Cosmos 304 Rocket 4.2 02:43:48 48° NW 02:43:48 48° NW 02:48:05 10° NNE
Cosmos 2082 Rocket 2.9 02:44:33 38° WNW 02:44:54 38° NW 02:50:15 10° NNE
Cosmos 1812 Rocket 4.4 02:48:13 39° NW 02:48:13 39° NW 02:51:32 10° N
Cosmos 332 Rocket 3.6 02:48:17 71° WSW 02:48:37 76° WNW 02:53:26 10° NNE
CZ-4 R/B 4.2 02:45:47 10° N 02:49:51 45° NW 02:49:51 45° NW
ATLAS CENTAUR R/B 3.5 02:48:29 43° SW 02:51:03 84° SE 03:03:15 10° NE
Cosmos 1655 Rocket 4.4 02:45:27 10° S 02:51:43 63° E 02:58:03 10° NNE
Cosmos 1898 Rocket 3.5 02:51:03 57° WSW 02:51:46 64° WNW 02:57:05 10° NNE
CZ-2C R/B 2.6 02:48:18 10° NNE 02:53:11 68° ESE 02:55:28 30° S
IDEFIX/ARIANE 42P 4.1 02:49:28 10° N 02:52:46 21° NW 02:52:46 21° NW
PAYLOAD A 4.1 02:52:02 10° NNE 02:56:50 66° ESE 02:59:52 23° S
NOSS 2-2 (E) 4.0 02:55:40 39° WNW 02:57:27 65° SW 03:03:59 10° SSE
Meteor 1-5 Rocket 4.2 02:53:02 10° N 02:58:48 84° ENE 03:04:19 10° SSE
Cosmos 44 3.4 02:58:37 53° WSW 02:59:40 67° NW 03:05:00 10° NE
YAOGAN 11 4.1 02:56:24 10° SSE 03:00:56 85° ENE 03:05:28 10° NNW
Cosmos 1937 Rocket 3.4 03:02:00 49° SW 03:03:16 68° WNW 03:08:28 10° NNE
ALOS 2.6 03:01:36 10° N 03:06:01 44° WNW 03:06:14 44° WNW
NOSS 3-1 (C) 4.0 02:59:15 10° NW 03:06:30 86° NE 03:15:18 10° SE
CZ-2C R/B 3.8 03:08:57 24° WNW 03:08:57 24° WNW 03:11:39 10° NNW
SL-16 R/B 4.2 03:14:05 16° WNW 03:14:05 16° WNW 03:15:58 10° NW
USA-17 4.3 03:12:32 59° NW 03:13:06 87° NE 03:16:51 10° SE
NOSS 2-2 (D) 4.0 03:13:18 21° NW 03:16:25 61° SW 03:22:50 10° SSE
Cosmos 1408 Rocket 4.2 03:14:35 10° N 03:18:56 58° ENE 03:23:17 10° SSE
NOSS 2-2 (C) 4.1 03:15:56 20° NW 03:19:08 59° SW 03:25:32 10° SSE
CZ-2C R/B 3.6 03:15:12 10° N 03:20:48 49° WNW 03:23:22 29° SW
IRS-1D 3.6 03:15:58 10° N 03:21:13 59° WNW 03:24:00 27° SW
RESURS DK-1 4.0 03:21:54 19° NW 03:22:03 19° NW 03:25:03 10° N
BlueWalker 3 2.9 03:21:58 27° NW 03:23:35 42° N 03:27:16 10° ENE
Resurs 1-4 Rocket 4.1 03:21:57 10° NNW 03:23:54 12° NW 03:24:10 12° NW
BREEZE-M DEB 1.8 03:24:31 72° SSE 03:24:31 72° SSE 03:26:50 10° E
CZ-2D R/B 4.1 03:22:43 10° NNW 03:25:08 13° NW 03:25:38 13° WNW
Cosmos 2219 Rocket 2.6 03:20:01 10° NNW 03:25:39 67° ENE 03:31:18 10° SE
Cosmos 1933 3.8 03:25:46 37° W 03:25:52 37° WNW 03:29:36 10° N
SL-16 R/B 2.7 03:20:53 10° NW 03:25:56 34° WSW 03:30:57 10° SSW
SL-27 R/B 4.2 03:26:22 10° SSE 03:29:03 27° ESE 03:31:45 10° NE
SL-08 ROCKET BODY 4.4 03:22:53 10° SSW 03:29:05 81° W 03:35:16 10° N
USA 281 4.3 03:24:49 10° N 03:30:07 27° NW 03:32:57 20° W
Cosmos 372 Rocket 4.4 03:29:24 31° WSW 03:31:13 42° WNW 03:36:05 10° NNE
USA 215 4.0 03:27:12 10° S 03:32:47 30° SW 03:35:44 21° W
DMSP B5D2-2 4.0 03:32:31 10° SSE 03:37:46 89° WSW 03:43:05 10° NNW
Sich 1 4.2 03:34:04 10° N 03:38:12 44° ENE 03:42:20 10° SSE
ATLAS 2AS CENTAUR R/B 2.9 03:33:15 23° WSW 03:38:17 66° NW 03:45:28 10° NE
S3M 4.4 03:32:56 10° NNW 03:38:51 41° W 03:44:42 10° SSW
YAOGAN 6 2.7 03:38:42 10° N 03:41:56 44° WNW 03:43:05 31° WSW
METEOR-M 4.5 03:39:38 10° N 03:44:42 45° WNW 03:48:31 17° SW
Cosmos 494 Rocket 3.9 03:41:00 10° NNW 03:46:08 66° WSW 03:51:12 10° S
Cosmos 2315 Rocket 4.1 03:40:01 10° NNW 03:46:11 54° W 03:52:21 10° SSW
Cosmos 1766 Rocket 4.4 03:42:54 10° NNW 03:46:38 28° W 03:48:24 21° SW
Cosmos 1500 Rocket 3.7 03:42:38 10° N 03:47:04 79° ENE 03:51:26 10° SSE
H-2A R/B 3.2 03:46:18 10° NNE 03:49:45 54° E 03:53:11 10° S
Cosmos 2322 Rocket 2.8 03:45:04 10° NW 03:50:02 33° WSW 03:55:01 10° SSW
Okean 3 Rocket 4.0 03:47:38 10° NNW 03:51:48 38° W 03:55:55 10° SSW
SL-4 R/B 2.3 03:51:57 26° WSW 03:53:00 32° SW 03:56:03 10° SSE
Cosmos 1743 2.5 03:49:40 10° N 03:53:28 87° W 03:57:12 10° S
Envisat 3.3 03:49:53 10° N 03:54:43 45° WNW 03:59:24 11° SW
ATLAS 3B R/B 3.0 03:48:32 10° NW 03:56:09 62° WSW 04:03:45 10° SSE
NOAA 11 4.3 03:52:55 10° N 03:58:20 60° WNW 04:03:43 10° SSW
Cosmos 1048 Rocket 4.0 03:53:10 10° NNW 03:58:25 63° WSW 04:03:33 10° S
USA 229 DEB 4.5 03:51:34 10° NW 03:58:47 61° NE 04:06:38 10° ESE
COSMO-SKYMED 1 3.7 03:55:51 10° SE 04:00:01 48° ENE 04:04:13 10° N
Cosmos 1125 Rocket 4.0 03:55:11 10° S 04:00:19 62° ESE 04:05:28 10° NNE
Cosmos 1378 2.9 03:57:01 10° S 04:00:32 88° E 04:04:04 10° N
Lacrosse 4 Rocket 3.5 03:59:50 11° WNW 04:01:48 14° NNW 04:04:12 10° N
NOSS 7 (E) 4.4 03:59:02 10° NW 04:02:08 58° SW 04:05:54 10° SSE
Meteor 1-14 Rocket 4.4 03:58:53 10° NNW 04:04:42 56° W 04:10:31 10° S
Timation 1 Rocket 4.3 04:01:01 10° SW 04:06:58 75° WNW 04:12:59 10° NNE
Cosmos 292 Rocket 4.0 04:02:33 10° SW 04:07:09 51° WNW 04:11:52 10° NNE
IRS-1C 4.2 04:02:00 10° NNE 04:07:23 83° ESE 04:12:42 10° SSW
Cosmos 1484 Rocket 2.8 04:04:45 10° N 04:08:19 51° WNW 04:11:49 10° SSW
Cosmos 1842 Rocket 4.1 04:04:52 10° SW 04:09:03 39° WNW 04:13:17 10° N
Meteor 1-11 Rocket 3.9 04:05:18 10° NNW 04:11:09 87° E 04:17:05 10° S
GP-B 3.3 04:07:11 10° SSW 04:11:28 48° W 04:15:47 10° NNW
COBE Rocket 4.2 04:07:36 10° N 04:12:04 42° WNW 04:16:36 10° SW
CBERS-1 4.4 04:08:49 10° N 04:13:38 43° WNW 04:18:26 10° SW
Lacrosse 5 rocket 2.4 04:10:05 10° SSW 04:13:55 40° SE 04:17:34 10° ENE
Cosmos 2084 Rocket 3.2 04:10:41 10° SW 04:14:49 87° NW 04:18:48 10° NE
Cosmos 2221 3.9 04:13:15 14° WSW 04:15:27 20° WNW 04:18:38 10° NNW
NOSS 3-1 (A) 4.1 04:08:22 10° NW 04:15:42 73° SW 04:24:29 10° SSE
Helios 1A 3.2 04:12:32 10° S 04:16:28 43° W 04:20:24 10° NNW
Cosmos 2360 Rocket 3.0 04:14:26 10° NW 04:19:07 27° WSW 04:23:47 10° SSW
Cosmos 1867 3.7 04:15:06 10° NW 04:20:36 81° NE 04:26:05 10° SE
SL-19 R/B 4.5 04:14:53 10° NNE 04:20:50 85° WNW 04:27:03 10° SSW
ATLAS 5 CENTAUR R/B 3.8 04:19:52 10° NNW 04:21:52 13° N 04:23:58 10° NNE
Cosmos 2333 Rocket 2.9 04:17:50 10° NW 04:22:51 32° WSW 04:27:52 10° SSW
Cosmos 2237 Rocket 3.4 04:20:17 10° NNW 04:25:47 46° NE 04:31:14 10° SE
Cosmos 2322 3.7 04:21:46 10° NNW 04:27:26 64° WSW 04:33:02 10° SSE
COSMOS 2428 2.7 04:22:22 10° NNW 04:28:04 78° WSW 04:33:46 10° SSE
Cosmos 2150 Rocket 4.4 04:23:22 10° SSW 04:28:43 73° ESE 04:34:01 10° NNE
ARIANE 5 R/B 2.5 04:24:10 10° N 04:29:14 71° WNW 04:34:12 10° SSW
Cosmos 1743 Rocket 3.8 04:26:32 10° NNW 04:30:41 46° W 04:34:50 10° SSW
Cosmos 2082 Rocket 4.3 04:28:43 10° NW 04:30:45 12° NNW 04:32:48 10° N
CZ-2C R/B 3.8 04:27:27 10° NNW 04:30:50 19° WNW 04:34:07 10° WSW
Meteor 1-10 Rocket 4.2 04:26:39 10° SSW 04:32:13 68° WNW 04:37:47 10° N
Cosmos 1805 Rocket 3.8 04:30:31 10° NNW 04:34:38 44° W 04:38:45 10° SSW
H-2A R/B 2.3 04:29:39 10° NNE 04:35:08 87° ESE 04:40:35 10° SSW
ERS-2 1.7 04:32:10 10° N 04:35:18 60° WNW 04:38:24 10° SSW
Cosmos 1271 Rocket 3.2 04:33:57 10° NNW 04:37:25 34° W 04:40:48 10° SSW
SJ-12 4.4 04:33:46 10° NNE 04:37:49 67° ESE 04:41:49 10° S
Cosmos 1151 Rocket 3.0 04:34:19 10° S 04:38:39 84° W 04:43:04 10° N
Cosmos 1726 3.6 04:36:54 10° N 04:40:08 39° ENE 04:43:23 10° SSE
IRS-P3 4.2 04:36:28 10° N 04:41:46 64° WNW 04:47:02 10° SSW
